Total_Precipitation_Accumulation
2.60 2.89 2.83 2.62 2.75 2.88 3.17 3.43 3.65 3.38 3.09 2.85 2.50 2.23 2.22 2.41 2.67 2.37 2.35 2.30 2.03 1.95 1.88 1.77 1.74 1.81 1.93 2.15 2.33 2.51 2.83 3.07 3.31 3.60 3.88 4.21 4.53 4.89
2.70 2.90 2.83 2.68 2.82 2.87 3.10 3.44 3.82 3.87 3.30 2.69 2.52 2.32 2.46 2.43 2.64 2.31 2.21 2.28 2.06 1.86 1.76 1.74 1.69 1.74 1.78 1.90 2.09 2.25 2.40 2.57 2.77 2.95 3.17 3.43 3.69 4.05
2.54 2.72 2.79 2.94 3.01 2.99 3.14 3.31 3.62 3.92 3.52 2.82 2.65 2.63 2.80 2.75 2.58 2.30 2.06 1.96 1.78 1.78 1.62 1.57 1.56 1.66 1.78 1.81 1.93 2.09 2.14 2.25 2.47 2.65 2.84 3.05 3.17 3.43
2.58 2.76 2.67 2.91 3.12 3.05 3.17 3.14 3.28 3.67 3.53 3.17 3.05 2.96 2.95 2.81 2.78 2.58 2.19 1.96 1.88 1.92 1.68 1.56 1.55 1.57 1.70 1.73 1.80 1.95 2.06 2.15 2.23 2.30 2.38 2.54 2.75 2.97
2.59 2.63 2.63 2.89 2.91 3.05 3.15 3.08 3.07 3.19 3.45 3.31 3.20 3.26 3.14 2.99 3.00 2.76 2.51 2.49 2.06 1.98 1.90 1.78 1.77 1.77 1.81 1.85 1.84 1.87 1.98 2.10 2.19 2.32 2.41 2.48 2.55 2.67
2.60 2.56 2.52 2.58 2.66 2.84 2.91 3.03 3.10 3.22 3.36 3.33 3.34 3.44 3.37 3.35 3.44 3.20 2.99 2.89 2.48 2.03 2.09 1.96 1.90 1.80 1.74 1.75 1.75 1.78 1.89 2.10 2.28 2.32 2.37 2.45 2.52 2.53
2.63 2.53 2.38 2.41 2.51 2.58 2.46 2.69 2.91 3.02 3.02 3.12 3.19 3.43 3.45 3.53 3.49 3.35 3.20 3.19 2.94 2.40 2.25 2.10 2.04 1.90 1.89 1.96 1.91 1.84 1.81 1.90 2.13 2.32 2.36 2.42 2.50 2.52
2.68 2.65 2.46 2.31 2.26 2.19 2.07 2.13 2.33 2.50 2.69 2.97 3.07 3.24 3.41 3.54 3.80 3.81 3.65 3.45 3.20 2.87 2.81 2.61 2.33 2.23 2.04 1.92 2.04 1.91 1.69 1.66 1.73 1.89 2.06 2.22 2.40 2.57
2.55 2.55 2.22 2.01 2.14 2.00 2.02 2.01 2.03 2.18 2.35 2.67 2.85 2.89 3.15 3.39 3.73 3.80 3.84 3.75 3.51 3.31 3.23 3.00 2.67 2.43 2.14 2.02 2.11 1.91 1.74 1.59 1.54 1.56 1.64 1.82 1.99 2.21
2.29 2.32 2.28 2.21 2.21 2.29 2.19 2.03 1.92 2.02 2.17 2.12 2.15 2.34 2.62 3.09 3.35 3.38 3.60 3.62 3.46 3.24 3.22 3.09 2.76 2.53 2.27 2.18 2.20 1.94 1.81 1.75 1.66 1.53 1.48 1.55 1.70 1.85
2.13 2.15 2.15 2.08 2.23 2.16 2.06 2.00 2.01 2.06 2.00 1.97 1.91 1.97 2.13 2.40 2.82 3.03 3.14 3.12 2.92 2.64 2.60 2.63 2.49 2.49 2.42 2.27 2.09 1.99 1.81 1.68 1.55 1.53 1.48 1.47 1.57 1.71
2.20 2.13 2.04 1.92 1.97 1.92 1.89 2.02 1.99 2.00 2.09 2.00 1.83 1.73 1.69 1.90 2.33 2.52 2.66 2.78 2.60 2.44 2.17 2.19 2.14 2.30 2.33 2.07 1.92 1.90 1.86 1.87 1.74 1.56 1.48 1.45 1.59 1.56
2.12 2.09 2.00 1.99 1.77 1.71 1.71 1.73 1.78 1.86 1.99 2.02 1.95 1.86 1.87 1.89 2.00 2.22 2.46 2.59 2.57 2.31 2.16 2.24 2.17 2.25 2.27 2.10 1.94 1.86 1.90 2.01 1.99 1.90 1.84 1.80 1.84 1.75
2.03 1.98 1.99 1.93 1.72 1.66 1.59 1.57 1.65 1.62 1.61 1.75 1.77 1.73 1.74 1.77 1.87 2.08 2.31 2.44 2.49 2.31 2.30 2.44 2.40 2.34 2.31 2.11 1.89 1.76 1.81 1.98 2.14 2.21 2.20 2.27 2.19 2.23
1.94 2.01 1.94 1.81 1.58 1.41 1.42 1.45 1.39 1.33 1.47 1.61 1.64 1.57 1.56 1.61 1.72 1.90 2.09 2.31 2.29 2.16 2.10 2.31 2.42 2.43 2.41 2.18 1.93 1.80 1.80 1.82 1.94 2.15 2.38 2.50 2.42 2.42
2.01 2.00 1.86 1.74 1.52 1.40 1.44 1.39 1.31 1.37 1.49 1.52 1.57 1.59 1.57 1.61 1.64 1.74 1.90 2.08 2.15 2.02 2.03 2.16 2.36 2.60 2.54 2.33 2.25 2.01 1.96 1.91 1.82 2.02 2.36 2.63 2.80 2.80
2.25 2.09 1.91 1.80 1.66 1.56 1.56 1.59 1.64 1.67 1.61 1.59 1.68 1.76 1.75 1.67 1.64 1.72 1.95 2.06 2.03 1.94 1.99 2.09 2.23 2.49 2.54 2.47 2.43 2.21 2.16 2.05 1.95 2.09 2.35 2.48 2.62 2.79
2.14 1.99 1.95 1.91 1.81 1.79 1.80 1.80 1.80 1.80 1.75 1.78 1.80 1.84 1.85 1.79 1.75 1.79 1.98 2.09 2.05 1.98 1.98 2.06 2.33 2.61 2.64 2.39 2.09 2.06 2.10 2.04 2.03 2.26 2.43 2.43 2.40 2.44
2.12 2.07 2.02 2.00 1.90 1.85 1.91 1.91 1.83 1.83 1.89 1.91 1.92 1.93 2.04 2.11 2.12 2.09 2.12 2.27 2.26 2.18 2.11 2.22 2.42 2.61 2.59 2.25 1.94 1.82 2.01 2.17 2.32 2.40 2.53 2.51 2.36 2.34
1.92 1.96 1.94 1.96 1.97 1.98 1.99 1.98 1.96 1.97 1.98 1.99 2.06 2.12 2.24 2.34 2.40 2.37 2.32 2.31 2.32 2.34 2.35 2.35 2.36 2.45 2.57 2.51 2.32 2.14 2.08 2.22 2.41 2.48 2.46 2.47 2.40 2.41
1.89 1.89 1.87 1.88 1.94 1.97 1.98 1.99 2.01 2.07 2.13 2.21 2.24 2.29 2.36 2.41 2.38 2.36 2.35 2.41 2.42 2.47 2.40 2.18 2.15 2.37 2.58 2.81 2.59 2.21 2.14 2.20 2.28 2.31 2.38 2.51 2.51 2.49
1.86 1.82 1.83 1.85 1.93 2.01 2.05 2.07 2.11 2.17 2.26 2.35 2.35 2.38 2.43 2.42 2.35 2.34 2.42 2.46 2.41 2.39 2.38 2.32 2.44 2.58 2.67 2.72 2.50 2.28 2.26 2.32 2.34 2.35 2.33 2.28 2.27 2.21
1.89 1.84 1.83 1.77 1.77 1.84 1.90 1.95 2.02 2.10 2.15 2.23 2.30 2.35 2.41 2.42 2.36 2.39 2.47 2.57 2.61 2.61 2.69 2.71 2.70 2.68 2.57 2.54 2.52 2.42 2.32 2.43 2.51 2.47 2.35 2.19 1.90 1.64